• In Hungary
  • List of Countries
  • For 7 days
  • Water Temperature
  • Satellite Maps
  • Weather Map
  • News
  • Weather Widgets
  • user-avatar
    Login

    Hourly Weather Battikaloa

    Today, 15 August, Wednesday

    Time Temperature Precipitation Wind Pressure Humidity
    00:00 +29°C° 0 mm 5 mps 755 mmHg 65%
    01:00 +29°C° 0 mm 5 mps 755 mmHg 65%
    02:00 +29°C° 0 mm 5 mps 755 mmHg 65%
    03:00 +29°C° 0 mm 5 mps 755 mmHg 66%
    04:00 +29°C° 0 mm 4 mps 755 mmHg 66%
    05:00 +28°C° 0 mm 3 mps 755 mmHg 67%
    06:00 +29°C° 0 mm 4 mps 755 mmHg 65%
    07:00 +30°C° 0 mm 5 mps 756 mmHg 62%
    08:00 +32°C° 0 mm 6 mps 756 mmHg 59%
    09:00 +33°C° 0 mm 6 mps 756 mmHg 56%
    10:00 +35°C° 0 mm 7 mps 756 mmHg 53%
    11:00 +36°C° 0 mm 7 mps 756 mmHg 47%
    12:00 +36°C° 0 mm 7 mps 755 mmHg 48%
    13:00 +37°C° 0 mm 8 mps 755 mmHg 48%
    14:00 +37°C° 0 mm 9 mps 754 mmHg 49%
    15:00 +35°C° 0 mm 8 mps 754 mmHg 52%
    16:00 +34°C° 0 mm 8 mps 754 mmHg 55%
    17:00 +32°C° 0 mm 8 mps 754 mmHg 59%
    18:00 +32°C° 0 mm 7 mps 754 mmHg 61%
    19:00 +30°C° 0 mm 7 mps 755 mmHg 64%
    20:00 +29°C° 0 mm 7 mps 755 mmHg 66%
    21:00 +29°C° 0 mm 6 mps 756 mmHg 66%
    22:00 +29°C° 0 mm 6 mps 756 mmHg 67%
    23:00 +29°C° 0 mm 6 mps 756 mmHg 67%

    Tomorrow, 16 August, Thursday

    Time Temperature Precipitation Wind Pressure Humidity
    00:00 +29°C° 0 mm 6 mps 756 mmHg 67%
    01:00 +29°C° 0 mm 6 mps 756 mmHg 67%
    02:00 +29°C° 0 mm 6 mps 755 mmHg 67%
    03:00 +29°C° 0 mm 7 mps 755 mmHg 67%
    04:00 +29°C° 0 mm 7 mps 755 mmHg 67%
    05:00 +29°C° 0 mm 7 mps 755 mmHg 67%
    06:00 +29°C° 0 mm 7 mps 756 mmHg 65%
    07:00 +30°C° 0 mm 7 mps 756 mmHg 64%
    08:00 +30°C° 0 mm 7 mps 756 mmHg 62%
    09:00 +32°C° 0 mm 7 mps 756 mmHg 59%
    10:00 +34°C° 0 mm 7 mps 756 mmHg 55%
    11:00 +35°C° 0 mm 8 mps 756 mmHg 51%
    12:00 +35°C° 0 mm 8 mps 756 mmHg 51%
    13:00 +35°C° 0 mm 8 mps 755 mmHg 51%
    14:00 +35°C° 0 mm 9 mps 754 mmHg 50%
    15:00 +34°C° 0 mm 8 mps 754 mmHg 53%
    16:00 +33°C° 0 mm 8 mps 754 mmHg 56%
    17:00 +32°C° 0 mm 7 mps 754 mmHg 59%
    18:00 +32°C° 0 mm 7 mps 755 mmHg 61%
    19:00 +30°C° 0 mm 6 mps 755 mmHg 63%
    20:00 +29°C° 0 mm 5 mps 756 mmHg 66%
    21:00 +29°C° 0 mm 5 mps 756 mmHg 66%
    22:00 +29°C° 0 mm 5 mps 756 mmHg 66%
    23:00 +28°C° 0 mm 5 mps 756 mmHg 67%

    Day after tomorrow, 17 August, Friday

    Time Temperature Precipitation Wind Pressure Humidity
    00:00 +28°C° 0 mm 5 mps 756 mmHg 67%
    01:00 +28°C° 0 mm 5 mps 755 mmHg 68%
    02:00 +28°C° 0 mm 5 mps 755 mmHg 68%
    03:00 +28°C° 0 mm 5 mps 755 mmHg 68%
    04:00 +28°C° 0 mm 5 mps 755 mmHg 68%
    05:00 +28°C° 0 mm 5 mps 755 mmHg 69%
    06:00 +29°C° 0 mm 6 mps 755 mmHg 64%
    07:00 +30°C° 0 mm 6 mps 755 mmHg 60%
    08:00 +33°C° 0 mm 7 mps 756 mmHg 56%
    09:00 +34°C° 0 mm 7 mps 756 mmHg 52%
    10:00 +35°C° 0 mm 7 mps 755 mmHg 49%
    11:00 +38°C° 0 mm 7 mps 755 mmHg 45%
    12:00 +38°C° 0 mm 7 mps 755 mmHg 45%
    13:00 +38°C° 0 mm 7 mps 754 mmHg 45%
    14:00 +38°C° 0 mm 7 mps 753 mmHg 45%
    15:00 +36°C° 0 mm 7 mps 753 mmHg 48%
    16:00 +35°C° 0 mm 7 mps 753 mmHg 51%
    17:00 +33°C° 0 mm 7 mps 753 mmHg 54%
    18:00 +32°C° 0 mm 7 mps 754 mmHg 57%
    19:00 +30°C° 0 mm 6 mps 754 mmHg 61%
    20:00 +29°C° 0 mm 6 mps 755 mmHg 64%
    21:00 +29°C° 0 mm 6 mps 755 mmHg 65%
    22:00 +29°C° 0 mm 6 mps 755 mmHg 66%
    23:00 +29°C° 0 mm 6 mps 756 mmHg 67%

    18 August, Saturday

    Time Temperature Precipitation Wind Pressure Humidity
    00:00 +28°C° 0 mm 6 mps 755 mmHg 67%
    01:00 +28°C° 0 mm 5 mps 754 mmHg 68%
    02:00 +28°C° 0 mm 5 mps 754 mmHg 68%
    03:00 +28°C° 0 mm 5 mps 754 mmHg 69%
    04:00 +28°C° 0 mm 6 mps 754 mmHg 69%
    05:00 +28°C° 0 mm 6 mps 754 mmHg 70%
    06:00 +29°C° 0 mm 6 mps 754 mmHg 65%
    07:00 +32°C° 0 mm 7 mps 755 mmHg 61%
    08:00 +33°C° 0 mm 7 mps 755 mmHg 57%
    09:00 +34°C° 0 mm 7 mps 755 mmHg 53%
    10:00 +36°C° 0 mm 7 mps 755 mmHg 48%
    11:00 +38°C° 0 mm 7 mps 755 mmHg 44%
    12:00 +38°C° 0 mm 7 mps 754 mmHg 44%
    13:00 +38°C° 0 mm 7 mps 753 mmHg 44%
    14:00 +38°C° 0 mm 7 mps 753 mmHg 44%
    15:00 +36°C° 0 mm 7 mps 753 mmHg 47%
    16:00 +35°C° 0 mm 7 mps 753 mmHg 51%
    17:00 +34°C° 0 mm 7 mps 753 mmHg 55%
    18:00 +33°C° 0 mm 6 mps 754 mmHg 58%
    19:00 +30°C° 0 mm 6 mps 755 mmHg 62%
    20:00 +29°C° 0 mm 5 mps 755 mmHg 65%
    21:00 +29°C° 0 mm 5 mps 755 mmHg 66%
    22:00 +29°C° 0 mm 5 mps 756 mmHg 67%
    23:00 +29°C° 0 mm 5 mps 756 mmHg 68%

    19 August, Sunday

    Time Temperature Precipitation Wind Pressure Humidity
    00:00 +29°C° 0 mm 6 mps 755 mmHg 68%
    01:00 +29°C° 0 mm 6 mps 754 mmHg 68%
    02:00 +28°C° 0 mm 6 mps 754 mmHg 69%
    03:00 +28°C° 0 mm 6 mps 754 mmHg 69%
    04:00 +28°C° 0 mm 6 mps 754 mmHg 70%
    05:00 +28°C° 0 mm 7 mps 754 mmHg 70%
    06:00 +30°C° 0 mm 7 mps 755 mmHg 66%
    07:00 +32°C° 0 mm 7 mps 755 mmHg 61%
    08:00 +33°C° 0 mm 8 mps 756 mmHg 57%
    09:00 +34°C° 0 mm 7 mps 756 mmHg 53%
    10:00 +36°C° 0 mm 7 mps 755 mmHg 49%
    11:00 +38°C° 0 mm 7 mps 755 mmHg 44%
    12:00 +38°C° 0 mm 7 mps 754 mmHg 44%
    13:00 +38°C° 0 mm 6 mps 754 mmHg 44%
    14:00 +38°C° 0 mm 6 mps 753 mmHg 43%
    15:00 +36°C° 0 mm 6 mps 753 mmHg 47%
    16:00 +35°C° 0 mm 6 mps 754 mmHg 50%
    17:00 +34°C° 0 mm 6 mps 754 mmHg 53%
    18:00 +33°C° 0 mm 5 mps 754 mmHg 57%
    19:00 +32°C° 0 mm 5 mps 755 mmHg 61%
    20:00 +30°C° 0 mm 4 mps 756 mmHg 66%
    21:00 +29°C° 0 mm 4 mps 756 mmHg 66%
    22:00 +29°C° 0 mm 5 mps 756 mmHg 67%
    23:00 +29°C° 0 mm 5 mps 756 mmHg 67%

    20 August, Monday

    Time Temperature Precipitation Wind Pressure Humidity
    00:00 +29°C° 0 mm 5 mps 755 mmHg 68%
    01:00 +29°C° 0 mm 5 mps 755 mmHg 68%
    02:00 +28°C° 0 mm 5 mps 754 mmHg 69%
    03:00 +28°C° 0 mm 5 mps 755 mmHg 69%
    04:00 +28°C° 0 mm 5 mps 755 mmHg 70%
    05:00 +28°C° 0 mm 4 mps 755 mmHg 70%
    06:00 +29°C° 0 mm 5 mps 756 mmHg 67%
    07:00 +32°C° 0 mm 5 mps 756 mmHg 63%
    08:00 +33°C° 0 mm 5 mps 757 mmHg 59%
    09:00 +35°C° 0 mm 5 mps 757 mmHg 53%
    10:00 +36°C° 0 mm 5 mps 757 mmHg 48%
    11:00 +38°C° 0 mm 4 mps 756 mmHg 43%
    12:00 +39°C° 0 mm 5 mps 756 mmHg 43%
    13:00 +39°C° 0 mm 5 mps 755 mmHg 42%
    14:00 +39°C° 0 mm 5 mps 754 mmHg 42%
    15:00 +37°C° 0.1 mm 5 mps 755 mmHg 47%
    16:00 +35°C° 0.1 mm 4 mps 755 mmHg 52%
    17:00 +34°C° 0.1 mm 4 mps 755 mmHg 56%
    18:00 +33°C° 0.1 mm 4 mps 756 mmHg 60%
    19:00 +31°C° 0.1 mm 3 mps 756 mmHg 64%
    20:00 +30°C° 0.1 mm 3 mps 757 mmHg 68%
    21:00 +29°C° 0 mm 2 mps 757 mmHg 69%
    22:00 +29°C° 0 mm 2 mps 757 mmHg 70%
    23:00 +29°C° 0 mm 1 mps 757 mmHg 71%
    Show more